Garden City Regional Airport
KGCK : now visible

Airfield :











YOU CAN JOIN US ON...

 
LOGIN :

Register | Disclaimer

   EN    FR    IT 

 









Legend :    VFR   Marginal VFR   IFR   Intensive IFR   Very Intensive IFR
Visi :
Ceiling :
>= 8 km
>= 3000ft
5 to 8 km
1000 to 3000 ft
1500m to 5 km
500 to 1000 ft
800 to 1500m
200 to 500 ft
< 800m
< 200 ft
Symbols :   Thunderstorms  Fog  Heavy snow  Heavy precipitations  Wind > 20 kt






- Airport Elevation : 2891 ft
- IATA code : GCK


KGCK - Garden City Regional

CURRENT METAR :
  • 212354Z 19003KT 10SM CLR 17/03 A3017 RMK AO2 SLP212 T01720033 10211 20172 56003

EXPIRED METARs :
  • 212254Z 24004KT 10SM CLR 18/03 A3017 RMK AO2 SLP209 T01830033
  • 212154Z 22007KT 10SM CLR 21/03 A3017 RMK AO2 SLP209 T02060033

TAF KGCK
Valid from the 22 at 00:00 until the 23 at 00:00 UTC


212336Z 2200/2224 20005KT P6SM SCT250
FM220800 21006KT P6SM SKC
FM222000 18011KT P6SM SKC
KZKC FIR / North America



MET'MAP, your aeronautical weather chart ! - Copyright ORBIFLY December 2007 - Disclaimer

ORBIFLY MET'MAP TEAM :

Programming & Development : Alexandra Zaïnal
Concept & original design : Baudouin d'Aumeries
Assistance for programming : Marc-Olivier Méhu
Technical & hardware support : Manuel Goepfert

Contact : metmap@orbifly.com




SOURCES & CREDITS :

   NOAA       Earth
Advisory